STARLINK-32456, 62041

Orbit data source: Space-Track

STARLINK-32456, 62041 is a payload satellite owned by SpaceX/Seattle (US) in LEO that was launched on Thu, 21 Nov 2024 UTC via an FALCON 9 launch vehicle from the Air Force Eastern Test Range (AFETR). Payload-class satellites include a variety of spacecraft equipped with specific instruments for various scientific and technological missions. These include communications satellites like Starlink; space stations such as the ISS; scientific satellites like the Hubble; Earth observation satellites from companies like Planet Labs, Umbra, and HawkEye 360; GPS; miniature CubeSats for education and research; and military/defense satellites.

Loading next visibility...
Identifier
62041, 2024-216K
Orbit
LEO
Last TLE update
3 hours ago
Origin
Manufacturer
SpaceX/Seattle
Mission
Operational Commercial Communications
Bus & Motor
STARLINK V2M, Unknown motor
Mass
730 kg wet, ~700 kg dry
Launch date (UTC)
2024-11-21 (7 months ago)
Launch vehicle
FALCON 9
Launch site
Air Force Eastern Test Range (AFETR)
Object type
Payload
Rocket body
Debris
Shape & HBR
Box + 2 Pan, 29 m
Radar Cross Section
36.964 m², Large (>1 m²)

Expand to show TLE details & history

TLE from 3 hours ago
0 STARLINK-32456
1 62041U 24216K   25182.25002315 -.00009495  00000-0 -32731-3 0  9992
2 62041  42.9998 236.6152 0001139 274.2801 238.3080 15.28422634 35233
Epoch: 2025-07-01T06:00Z
TLE epoch observation values (Epoch: 2025-07-01T06:00:02Z)
Latitude
18.35932°
Longitude
26.33146°
Altitude
480.163 km
Speed
7.629 km/s
True Right ascension
02h 23m 33s
True Declination
18° 15' 09"
Sunlit
Object was in daylight at epoch
Visualization orbit readout
Latitude
20.0431°
Longitude
23.42571°
Altitude
480.333 km
Speed
7.629 km/s
Apparent Right ascension
04h 52m 54s
Apparent Declination
-13° 01' 07"
Sunlit
Object is in daylight
Visualization observer readout
Local Sidereal Time
20:45:47
Azimuth
79.3° E
Elevation
-32.556°
Doppler factor
1
Orbital elements
Apogee altitude
483.254 km
Perigee altitude
481.692 km
Semi-major axis
6,860.61 km
Eccentricity
0.00011
Inclination
42.9998°
RAAN
236.6152°
Arg. of periapsis
274.2801°
True anomaly
Unknown
Mean anomaly
238.308°
Eccentric anomaly
Unknown
Mean motion
3.81943 °/min
Orbital period
94.25 mins
BSTAR
-0.00032731
Loading maneuver chart data...
Loading SW <> Apogee altitude chart data...
Loading historical data...
Loading historical data...
Loading historical data...
Loading historical data...
Loading historical data...
Loading historical data...
Loading historical data...

STARLINK-32456 Visibility forecast

Observer location: undefined°, undefined°

Span
Click to sort rows by Start time (UTC) header in descending order
Start Az.
Max El. time (UTC)
Max El. Az.
Max El.
End time (UTC)
End Az.
7 mins2025-07-01 10:23:33.009Z286.202° WNW2025-07-01 10:27:33.009Z29.648° NE37.348°2025-07-01 10:30:33.009Z81.331° E
6 mins2025-07-01 12:03:33.009Z284.472° WNW2025-07-01 12:06:33.009Z151.931° SSE42.397°2025-07-01 12:09:33.009Z117.445° SE
5 mins2025-07-02 06:38:33.009Z203.611° SW2025-07-02 06:40:33.009Z155.639° SSE28.539°2025-07-02 06:43:33.009Z88.437° E
5 mins2025-07-02 08:17:33.009Z266.245° W2025-07-02 08:19:33.009Z358.861° N43.404°2025-07-02 08:22:33.009Z69.608° E
|